Showing default

USA 568, 66551

Orbit data source: Space-Track

USA 568, 66551 is a payload satellite owned by USSF SSC (US) in LEO that was launched on Tue, 30 Jul 2024 UTC via an ATLAS V 551 launch vehicle from the Air Force Eastern Test Range (AFETR). Payload-class satellites include a variety of spacecraft equipped with specific instruments for various scientific and technological missions. These include communications satellites like Starlink; space stations such as the ISS; scientific satellites like the Hubble; Earth observation satellites from companies like Planet Labs, Umbra, and HawkEye 360; GPS; miniature CubeSats for education and research; and military/defense satellites.

Loading next visibility...
Identifier
66551, 2024-134K
Orbit
LEO
Country
Flag of USUS
Related business
Manufacturer
Unknown (US)
Mission
Operational Defense Classified
Bus & Motor
UNKNOWN, Unknown motor
Mass
~100 kg wet, 100 kg dry
Launch date (UTC)
2024-07-30 (2 years ago)
Launch vehicle
ATLAS V 551
Launch site
Air Force Eastern Test Range (AFETR)
Object type
Payload
Rocket body
Debris
Shape & HBR
Box, 14.5 m
Radar Cross Section
1.500 m²

Expand to show TLE details & history
Last TLE update: 7 months ago

TLE from 7 months ago
0 USA 568
1 66551U 25271AE  25336.66670139 -.01709685  00000-0 -74303-2 0  9994
2 66551  53.1571 236.7807 0000717 110.7411 313.9012 15.87051116  2624
Epoch: 2025-12-02T16:00Z
TLE epoch observation values (Epoch: 2025-12-02T16:00:03.000Z)
Latitude
46.46158°
Longitude
-23.34765°
Altitude
315.217 km
Speed
7.725 km/s
True Right ascension
19h 13m 39s
True Declination
46° 16' 42"
Sunlit
Object was in daylight at epoch
Visualization orbit readout
Latitude
Unknown
Longitude
Unknown
Altitude
Unknown
Speed
Unknown
Apparent Right ascension
Unknown
Apparent Declination
Unknown
Sunlit
N/A
Visualization observer readout
Local Sidereal Time
10:20:28
Azimuth
Unknown
Elevation
Unknown
Doppler factor
Unknown
Orbital elements
Apogee altitude
311.298 km
Perigee altitude
310.339 km
Semi-major axis
6,688.956 km
Eccentricity
0.00007
Inclination
53.1571°
RAAN
236.7807°
Arg. of periapsis
110.7411°
True anomaly
313.89528°
Mean anomaly
313.9012°
Eccentric anomaly
313.89824°
Mean motion
3.9674 °/min
Orbital period
90.74 mins
BSTAR
-0.0074303
Loading maneuver chart data...
Computing Atmospheric mass density...
Loading historical data...
Loading historical data...
Loading historical data...
Loading historical data...
Loading historical data...
Loading historical data...
Loading historical data...

Documentation

Showing up to 5 results
|